Date,TemperatureHighF,TemperatureAvgF,TemperatureLowF,DewpointHighF,DewpointAvgF,DewpointLowF,HumidityHigh,HumidityAvg,HumidityLow,PressureMaxIn,PressureMinIn,WindSpeedMaxMPH,WindSpeedAvgMPH,GustSpeedMaxMPH,PrecipitationSumIn
2013-1-20,23,18,13,12,7,-100,87,66,45,30.02,29.77,20,12,0,0.00
2013-1-21,17,14,9,9,4,-3,80,64,52,30.01,29.83,10,3,0,0.00
2013-1-22,9,5,2,-2,-8,-12,75,54,41,30.15,29.85,12,8,0,0.00
2013-1-23,10,5,2,1,-4,-10,81,67,47,30.20,30.05,8,2,0,0.00
2013-1-24,12,7,4,5,0,-4,85,74,59,30.49,30.04,10,3,0,0.00
2013-1-25,12,8,4,7,1,-4,84,74,59,30.47,30.06,3,1,0,0.00
2013-1-26,22,11,1,11,3,-3,83,72,51,30.35,30.06,3,0,0,0.00
2013-1-27,27,18,9,13,10,5,88,72,50,30.53,30.32,3,0,0,0.00
2013-1-28,41,30,19,40,26,11,97,88,68,30.32,29.79,7,1,0,0.00
2013-1-29,60,43,33,58,42,32,99,97,96,29.98,29.67,6,1,0,0.00
2013-1-30,66,61,53,61,55,49,98,82,72,29.67,28.96,14,6,0,0.00
2013-1-31,53,26,18,51,14,5,93,61,43,29.64,28.94,19,12,0,0.00
2013-2-1,18,16,12,12,8,1,87,71,57,30.14,29.64,12,7,0,0.00
2013-2-2,17,13,11,9,4,0,82,66,58,30.14,29.96,9,5,0,0.00
2013-2-5,26,24,20,19,16,13,82,71,64,30.03,29.92,4,1,9,0.00
2013-2-6,27,22,14,23,16,8,87,76,58,30.46,29.94,8,3,16,0.00
2013-2-7,28,23,15,23,15,10,87,72,62,30.51,30.16,7,3,15,0.00
2013-2-8,34,28,18,31,24,16,94,86,69,30.17,29.84,7,2,14,0.03
2013-2-9,21,17,9,18,15,6,92,91,88,30.50,30.16,3,1,7,0.02
2013-2-10,33,19,5,28,16,2,92,86,79,30.50,30.06,5,2,11,0.11
2013-2-11,48,37,32,40,31,26,91,78,69,30.06,29.62,11,5,29,0.44
2013-2-12,34,32,30,30,27,23,94,82,70,30.03,29.76,8,4,20,0.02
2013-2-13,36,30,23,26,24,21,91,77,60,29.98,29.80,3,1,7,0.02
2013-2-14,39,31,23,33,26,21,94,84,62,29.98,29.85,5,2,10,0.08
2013-2-15,37,33,22,33,24,15,94,72,59,30.12,29.84,8,4,20,0.09
2013-2-16,30,23,19,19,17,12,89,76,51,30.13,29.99,3,1,8,0.00
2013-2-17,21,15,11,18,10,4,91,83,69,30.28,29.98,9,3,17,0.00
2013-2-18,29,19,9,17,11,5,89,73,55,30.38,30.00,5,2,11,0.09
2013-2-19,41,33,24,35,25,17,90,74,59,30.00,29.61,10,4,23,0.15
2013-2-20,25,21,18,19,14,11,84,75,60,30.14,29.81,9,5,22,0.01
2013-2-21,21,17,12,16,12,7,88,80,72,30.50,30.11,9,4,18,0.00
2013-2-22,33,26,20,28,22,15,91,82,72,30.48,30.09,10,4,16,0.00
2013-2-23,37,33,30,31,28,24,89,82,78,30.09,29.94,7,3,12,0.03
2013-2-24,33,30,29,27,25,23,92,81,71,30.12,29.92,5,2,12,0.01
2013-2-25,35,31,29,29,26,25,89,82,74,30.30,30.12,4,1,9,0.01
2013-2-26,43,34,25,32,27,23,95,78,56,30.30,29.89,11,4,23,0.27
2013-2-27,34,32,32,33,31,31,97,95,95,29.91,29.64,7,2,15,0.85
2013-3-3,23,22,22,20,18,16,89,84,73,29.98,29.93,6,3,15,0.00
2013-3-4,29,25,20,22,19,16,88,79,68,30.13,29.97,7,4,20,0.00
2013-3-5,31,26,23,24,21,19,89,81,72,30.17,30.05,4,1,9,0.04
2013-3-6,38,31,21,32,27,19,93,86,76,30.22,30.03,2,0,8,0.20
2013-3-7,36,33,30,32,30,25,95,87,73,30.35,30.20,3,1,8,0.01
2013-3-8,40,34,29,28,25,22,94,72,53,30.46,30.33,6,2,15,0.02
2013-3-9,46,34,26,32,28,24,95,78,50,30.49,30.30,6,1,10,0.01
2013-3-10,61,48,33,34,29,25,78,50,32,30.30,30.03,9,3,16,0.00
2013-3-11,55,52,49,42,32,29,66,48,42,30.03,29.70,10,5,25,0.00
2013-3-12,53,39,33,45,34,28,93,82,68,29.97,29.71,6,3,16,0.25
2013-3-13,37,31,22,30,25,16,91,78,63,30.01,29.88,7,3,21,0.02
2013-3-14,31,24,17,18,13,9,86,63,40,30.14,30.01,12,6,41,0.01
2013-3-15,36,30,23,31,24,15,92,78,64,30.13,29.79,9,3,21,0.07
2013-3-16,29,25,19,21,18,15,87,74,62,30.05,29.92,5,1,12,0.01
2013-3-17,29,23,19,23,16,8,90,75,51,30.42,30.05,5,2,13,0.03
2013-3-18,33,24,17,30,17,9,92,74,49,30.42,29.80,11,5,25,0.02
2013-3-19,35,31,25,32,26,19,93,81,68,29.89,29.74,8,4,21,0.17
2013-3-20,34,26,21,23,20,17,87,76,54,29.90,29.86,8,3,16,0.01
2013-3-21,29,24,18,24,18,13,89,77,55,29.90,29.78,6,2,14,0.01
2013-3-22,31,28,24,26,24,21,91,85,74,29.99,29.80,7,4,18,0.04
2013-3-23,36,32,27,26,24,22,87,75,59,30.08,29.97,7,4,15,0.03
2013-3-24,38,31,24,27,23,21,91,73,58,30.08,29.80,4,1,9,0.01
2013-3-25,39,34,29,30,26,24,82,74,63,29.81,29.68,3,1,10,0.01
2013-3-26,45,37,30,33,28,26,86,72,54,30.00,29.79,6,2,14,0.00
2013-3-27,45,35,30,35,30,25,96,82,60,30.12,29.98,6,3,18,0.04
2013-3-28,43,36,32,37,32,28,95,85,58,30.27,30.11,5,2,13,0.16
2013-3-29,50,40,34,35,32,27,89,73,44,30.27,30.18,6,2,18,0.04
2013-3-30,51,40,29,31,26,22,85,62,38,30.27,30.11,5,2,10,0.00
2013-3-31,57,43,34,42,30,-100,92,65,39,30.11,29.67,9,4,18,0.05
2013-4-1,43,35,26,40,27,15,93,74,44,30.01,29.62,10,4,23,0.11
2013-4-2,33,27,22,27,20,15,89,75,51,30.17,30.00,9,4,21,0.03
2013-4-3,36,30,25,21,17,13,71,58,40,30.45,30.17,9,4,17,0.01
2013-4-4,55,37,23,25,20,15,80,54,21,30.43,29.98,5,2,15,0.00
2013-4-5,43,37,29,29,22,15,72,55,40,30.22,29.94,8,4,22,0.00
2013-4-6,47,34,23,23,20,17,79,58,34,30.39,30.11,5,2,14,0.00
2013-4-7,69,53,42,45,34,19,69,48,37,30.11,29.75,11,6,26,0.00
2013-4-8,57,44,39,42,36,32,93,73,51,30.17,29.80,7,1,13,0.11
2013-4-9,60,49,42,50,43,40,96,83,57,30.16,29.79,7,3,18,0.75
2013-4-10,45,41,38,44,40,37,98,96,95,30.13,29.94,3,0,13,1.24
2013-4-11,38,34,31,37,31,28,97,92,75,30.20,30.02,3,1,14,0.49
2013-4-12,50,39,33,48,37,31,98,91,80,30.03,29.59,8,4,20,0.88
2013-4-13,44,40,38,37,34,32,86,78,65,29.99,29.83,10,4,22,0.01
2013-4-14,46,39,34,34,29,26,91,69,54,30.25,29.99,6,2,13,0.01
2013-4-15,72,54,35,50,39,25,73,59,40,30.24,30.03,9,4,21,0.01
2013-4-16,64,56,44,58,49,36,95,78,66,30.28,30.00,9,4,18,0.14
2013-4-17,54,44,34,39,33,29,88,66,45,30.41,30.28,4,1,10,0.01
2013-4-18,76,60,43,59,48,33,75,65,55,30.30,29.72,12,6,28,0.00
2013-4-19,72,58,41,58,48,31,82,71,60,29.79,29.41,12,6,37,0.04
2013-4-20,41,37,31,33,26,20,87,66,54,30.47,29.78,9,4,21,0.05
2013-4-21,44,34,25,30,22,12,79,62,43,30.75,30.47,6,1,12,0.02
2013-4-22,59,45,30,34,25,12,69,47,31,30.68,30.39,8,4,20,0.00
2013-4-23,64,51,39,39,34,26,69,52,35,30.40,29.99,8,4,16,0.00
2013-4-24,66,53,38,55,43,34,92,71,52,30.04,29.62,8,4,20,0.15
2013-4-25,55,43,33,37,33,28,92,70,37,30.36,30.03,5,2,16,0.09
2013-4-26,53,44,35,37,31,23,95,64,34,30.53,30.36,6,2,14,0.00
2013-4-27,68,52,37,43,35,27,77,55,33,30.50,30.27,3,1,8,0.00
2013-4-28,73,58,45,48,39,-100,82,54,28,30.27,30.06,8,4,18,0.07
2013-4-29,64,56,49,54,49,43,90,76,66,30.09,30.01,7,4,16,0.23
2013-4-30,73,62,55,56,52,50,88,71,51,30.25,30.08,7,3,16,0.02
2013-5-1,77,66,56,53,46,32,78,53,26,30.37,30.24,6,3,15,0.00
2013-5-2,76,64,52,50,39,32,54,41,22,30.44,30.29,4,2,11,0.00
2013-5-3,77,66,54,50,44,39,62,46,33,30.34,30.24,7,2,14,0.00
2013-5-4,72,62,51,49,43,38,62,50,33,30.32,30.18,5,2,13,0.00
2013-5-5,76,62,46,49,44,39,81,54,28,30.24,30.12,4,1,11,0.00
2013-5-6,73,61,49,48,40,33,67,46,26,30.20,30.06,3,1,8,0.00
2013-5-7,76,64,52,57,50,42,84,62,46,30.16,30.04,3,1,9,0.00
2013-5-8,70,62,53,59,54,48,96,76,62,30.08,29.96,7,2,14,0.04
2013-5-9,69,60,55,61,57,54,98,91,70,29.96,29.90,5,1,12,0.80
2013-5-12,46,39,37,38,35,31,91,85,60,29.97,29.85,6,4,16,0.10
2013-5-13,48,41,35,36,33,29,86,73,57,30.18,29.97,6,3,15,0.07
2013-5-14,57,44,30,39,33,28,96,69,35,30.22,30.01,4,1,7,0.00
2013-5-15,78,59,47,62,46,36,92,64,45,30.01,29.55,10,4,22,0.12
2013-5-16,74,58,51,51,25,-100,77,54,29,30.04,29.77,8,3,21,0.06
2013-5-17,65,52,39,45,34,-100,93,66,35,30.27,30.04,3,1,9,0.00
2013-5-18,70,56,41,55,44,38,91,66,45,30.31,30.18,4,1,9,0.00
2013-5-19,80,67,58,62,57,48,85,70,53,30.18,30.01,5,3,11,0.00
2013-5-20,82,70,61,69,62,57,90,76,59,30.07,29.89,3,1,9,0.00
2013-5-21,85,70,61,71,64,58,97,80,60,29.96,29.77,9,1,18,0.19
2013-5-22,86,72,60,71,64,59,98,80,47,29.82,29.66,9,1,20,0.35
2013-5-23,76,65,44,64,58,42,93,79,58,29.92,29.71,7,2,17,0.18
2013-5-24,51,43,38,42,38,36,95,84,59,30.26,29.92,8,5,19,0.45
2013-5-25,57,48,39,39,37,35,87,66,45,30.28,30.20,9,5,21,0.01
2013-5-26,61,52,41,38,36,32,82,57,36,30.26,30.18,9,4,18,0.00
2013-5-27,70,56,41,45,39,35,87,57,30,30.32,30.18,6,1,11,0.00
2013-5-28,62,56,51,59,50,38,97,82,55,30.20,29.97,4,2,8,0.97
2013-5-29,80,70,59,68,63,58,98,82,57,30.05,29.93,6,2,21,1.61
2013-5-30,86,75,62,68,63,60,92,69,42,30.14,30.04,5,1,11,0.14
2013-5-31,88,76,65,69,66,62,90,71,45,30.09,29.94,6,1,13,0.00
2013-6-1,86,76,67,71,66,61,87,72,53,29.99,29.78,8,2,27,0.05
2013-6-4,64,57,51,40,39,37,67,53,41,30.21,30.18,3,1,8,0.00
2013-6-5,67,57,48,54,45,36,88,67,46,30.27,30.13,2,0,9,0.00
2013-6-6,58,55,52,57,52,43,97,91,69,30.14,29.88,5,2,11,1.56
2013-6-7,60,57,54,58,56,53,98,96,90,29.90,29.84,3,1,7,0.19
2013-6-8,63,58,54,58,56,53,99,91,79,30.11,29.85,5,2,9,0.02
2013-6-9,75,63,53,61,55,50,89,75,56,30.24,30.11,3,1,8,0.01
2013-6-10,70,64,61,64,60,55,96,86,74,30.16,29.74,6,3,13,0.07
2013-6-11,68,64,58,64,61,54,97,90,77,29.88,29.66,7,3,16,0.16
2013-6-12,74,63,51,60,55,50,98,77,49,29.97,29.81,3,1,7,0.01
2013-6-13,66,60,54,59,57,53,97,90,77,29.82,29.54,5,1,13,1.31
2013-6-14,72,62,53,61,56,52,98,83,61,30.01,29.82,6,2,13,0.03
2013-6-15,73,63,52,57,52,45,91,70,37,30.09,29.98,6,2,15,0.00
2013-6-16,75,65,59,68,60,53,97,83,73,29.98,29.73,6,2,13,0.24
2013-6-17,77,68,59,65,60,57,95,79,59,29.96,29.85,6,2,13,0.01
2013-6-18,68,60,53,57,53,49,95,79,50,30.07,29.93,3,1,9,0.02
2013-6-19,65,57,48,53,46,39,90,69,40,30.24,30.06,4,1,11,0.00
2013-6-20,74,57,44,55,47,42,95,74,39,30.31,30.24,3,1,8,0.00
2013-6-22,85,82,75,71,68,64,77,62,55,30.15,30.03,4,1,11,0.00
2013-6-23,87,78,70,74,68,64,89,72,51,30.08,30.01,8,2,17,0.01
2013-6-24,84,76,67,72,66,62,91,73,53,30.06,29.95,7,2,18,0.01
2013-6-25,80,74,67,72,66,63,91,77,66,29.97,29.82,5,2,15,0.01
2013-6-26,82,74,68,71,66,62,91,78,59,29.85,29.80,5,2,11,0.01
2013-6-27,77,70,64,72,66,62,96,89,77,29.83,29.67,6,0,13,0.19
2013-6-28,66,64,61,65,63,60,98,97,95,29.67,29.54,3,1,6,0.63
2013-6-29,75,66,61,67,63,60,99,91,69,29.73,29.54,4,1,10,0.73
2013-6-30,75,67,59,69,62,58,98,86,71,29.96,29.72,3,1,10,0.03
2013-7-1,66,63,59,64,62,58,97,94,87,30.09,29.96,3,1,10,0.28
2013-7-2,74,64,59,70,62,58,98,94,82,30.14,30.05,5,0,9,0.20
2013-7-3,83,71,65,74,68,64,99,94,71,30.18,30.11,3,1,8,0.71
2013-7-4,84,74,68,74,70,67,98,88,62,30.20,30.13,4,1,9,0.19
2013-7-5,83,74,69,75,70,67,97,87,69,30.16,30.08,5,1,12,0.40
2013-7-6,83,73,67,73,67,65,94,82,61,30.17,30.05,4,0,7,0.40
2013-7-7,81,75,70,72,69,65,97,82,69,30.07,29.96,4,2,12,0.01
2013-7-8,83,73,68,72,68,65,96,85,66,30.07,30.00,4,1,10,0.07
2013-7-9,79,73,68,73,70,67,97,89,75,30.07,29.92,4,1,16,0.03
2013-7-10,84,75,69,76,68,-100,97,82,68,29.92,29.71,6,2,14,0.01
2013-7-11,76,68,59,65,60,56,92,76,58,30.05,29.85,6,2,13,0.00
2013-7-12,74,65,58,67,62,57,98,89,72,30.22,30.05,2,0,6,0.00
2013-7-13,81,70,58,72,66,57,99,87,70,30.28,30.20,5,1,8,0.00
2013-7-14,88,76,67,76,70,66,98,83,58,30.33,30.26,3,1,8,0.00
2013-7-15,87,78,71,78,70,63,93,78,50,30.32,30.25,4,1,9,0.00
2013-7-16,88,78,67,74,69,64,97,75,48,30.31,30.23,5,1,9,0.00
2013-7-17,91,80,72,79,73,69,94,80,56,30.25,30.09,6,1,14,0.00
2013-7-18,89,81,74,79,74,71,96,81,66,30.12,29.96,6,1,11,0.00
2013-7-19,91,81,68,76,71,66,93,74,51,29.96,29.73,10,3,21,0.19
2013-7-20,80,71,67,70,64,-100,97,82,49,29.91,29.72,6,2,16,0.78
2013-7-21,75,67,60,66,61,57,97,81,65,30.05,29.91,2,0,8,0.01
2013-7-22,79,67,57,69,61,56,96,82,60,30.03,29.82,2,0,7,0.00
2013-7-23,83,73,65,69,66,59,97,81,54,29.82,29.64,6,2,18,0.02
2013-7-24,66,61,52,58,52,48,94,74,58,30.09,29.72,8,3,16,0.01
2013-7-25,74,60,48,57,52,47,97,76,47,30.17,30.09,4,0,9,0.00
2013-7-26,75,63,49,60,54,48,97,74,50,30.17,30.06,4,0,7,0.00
2013-7-27,77,68,57,67,61,53,94,80,63,30.05,29.85,6,2,16,0.01
2013-7-28,74,66,59,65,62,54,96,85,58,30.01,29.83,6,1,13,0.10
2013-7-29,70,62,54,58,55,52,95,80,61,30.16,30.01,5,1,14,0.05
2013-7-30,75,65,55,62,57,53,95,78,53,30.24,30.16,7,1,14,0.00
2013-7-31,72,67,63,64,63,62,96,87,72,30.03,29.97,2,0,4,0.00
2013-8-1,76,67,62,68,63,60,97,86,63,29.97,29.80,9,2,15,0.40
2013-8-2,74,65,58,66,60,57,98,85,57,29.93,29.86,5,1,11,0.40
2013-8-3,74,66,59,62,59,54,98,78,50,29.96,29.86,7,2,13,0.39
2013-8-4,70,63,55,60,55,51,95,76,55,30.10,29.96,8,3,17,0.01
2013-8-5,73,61,50,58,53,49,97,77,47,30.16,30.06,3,1,7,0.00
2013-8-6,77,63,53,63,56,51,96,80,50,30.10,30.02,3,1,7,0.00
2013-8-7,80,71,63,68,64,59,88,78,64,30.03,29.89,6,3,15,0.01
2013-8-8,81,72,66,72,68,64,98,89,71,29.98,29.92,4,1,9,0.30
2013-8-9,77,69,65,69,66,60,99,90,62,29.95,29.88,6,1,14,1.12
2013-8-10,70,64,55,61,56,51,96,76,52,30.13,29.94,6,2,13,0.01
2013-8-11,75,63,52,59,54,51,98,78,49,30.17,30.08,4,1,9,0.00
2013-8-12,76,67,59,63,59,56,93,77,58,30.09,29.95,2,1,7,0.00
2013-8-21,85,72,59,68,62,58,96,74,47,30.19,30.05,4,1,10,0.00
2013-8-22,82,73,62,72,65,55,95,78,59,30.06,29.93,9,2,17,0.00
2013-8-23,72,64,54,60,56,52,97,77,51,30.24,30.01,4,1,10,0.00
2013-8-24,76,61,49,59,52,47,98,76,37,30.40,30.25,3,0,7,0.00
2013-8-25,82,66,52,61,52,-100,96,68,41,30.38,30.16,4,1,11,0.02
2013-8-26,77,69,63,71,66,60,95,90,77,30.21,29.95,4,2,15,0.59
2013-8-27,82,71,67,73,69,66,99,92,73,29.97,29.91,3,1,8,0.15
2013-9-1,79,69,64,72,65,-100,99,90,77,29.88,29.78,3,0,9,0.05
2013-9-2,81,70,63,73,67,58,99,88,72,29.82,29.70,6,2,13,0.02
2013-9-3,65,62,59,59,57,56,90,84,77,29.97,29.81,5,2,13,0.01
2013-9-4,76,65,53,64,56,51,97,76,44,30.03,29.97,7,2,14,0.28
2013-9-5,64,57,47,61,49,41,95,77,49,30.27,30.01,6,2,13,0.05
2013-9-6,69,56,42,51,46,41,96,73,45,30.34,30.15,2,0,8,0.00
2013-9-7,64,58,51,60,54,48,94,89,83,30.14,29.91,3,1,10,0.07
2013-9-8,65,59,47,64,50,-100,97,78,53,30.15,29.90,4,2,13,0.08
2013-9-9,74,59,45,62,52,43,96,81,58,30.20,30.01,5,1,11,0.01
2013-9-10,88,75,64,77,69,61,96,82,63,30.02,29.93,4,2,14,0.26
2013-9-14,60,52,46,46,43,39,89,72,51,30.18,30.13,5,1,10,0.02
2013-9-15,67,50,43,54,43,-100,95,83,62,30.21,30.11,5,1,15,0.08
2013-9-16,54,50,44,53,48,42,98,93,76,30.43,30.12,3,1,10,0.07
2013-9-17,63,49,36,49,42,35,98,80,47,30.55,30.35,3,1,9,0.01
2013-9-18,50,46,43,45,42,40,90,87,82,30.35,30.32,2,2,6,0.00
2013-9-19,75,61,48,61,54,46,97,80,51,30.18,30.06,3,1,9,0.00
2013-9-20,82,68,54,66,61,53,98,80,58,30.06,29.80,5,2,13,0.00
2013-9-21,70,62,53,62,59,52,97,91,73,29.80,29.65,9,2,17,1.09
2013-10-2,76,66,58,64,59,52,94,80,46,30.12,29.94,7,2,14,0.00
2013-10-3,70,59,45,57,51,44,98,78,39,30.18,30.07,2,0,5,0.00
2013-10-4,65,61,58,64,60,54,99,95,81,30.11,30.03,3,0,7,0.28
2013-10-5,62,59,57,61,58,55,98,94,88,30.14,30.08,2,0,5,0.15
2013-10-6,81,68,58,72,64,57,99,90,70,30.08,29.76,6,2,14,0.42
2013-10-7,73,60,50,66,55,47,97,86,75,30.06,29.66,8,3,18,0.72
2013-10-8,62,51,44,49,45,42,97,80,53,30.40,30.07,5,1,10,0.05
2013-10-9,66,52,41,52,46,40,96,80,49,30.47,30.34,4,1,8,0.01
2013-10-10,66,52,40,48,44,38,95,76,46,30.33,30.21,3,1,7,0.01
2013-10-18,59,52,49,51,44,40,96,78,52,29.96,29.76,6,2,21,0.00
2013-10-19,61,51,43,48,44,40,92,78,53,29.95,29.68,6,2,17,0.00
2013-10-20,52,45,40,45,39,-100,93,82,67,30.04,29.79,4,1,10,3.00
2013-10-21,66,53,44,49,42,38,92,68,38,30.03,29.84,7,2,15,0.00
2013-10-22,51,44,37,47,37,30,96,76,52,29.90,29.78,7,2,20,0.00
2013-10-23,44,39,34,39,34,30,94,84,76,29.89,29.76,5,1,18,0.00
2013-10-24,48,38,32,37,33,29,95,83,56,30.07,29.85,8,2,22,0.00
2013-10-25,49,42,34,41,37,33,97,83,67,30.24,30.07,6,1,12,0.00
2013-10-26,45,41,37,37,33,29,93,74,56,30.19,29.84,7,3,22,0.00
2013-10-27,46,41,35,39,34,-100,95,81,67,30.11,29.86,4,1,12,0.00
2013-10-28,47,42,34,40,33,23,85,73,42,30.42,30.09,6,2,13,0.00
2013-10-29,38,37,36,31,30,29,79,76,74,30.44,30.37,1,0,3,0.00
2013-10-30,55,43,36,44,38,31,94,84,61,30.37,30.16,4,1,9,0.00